BAW817 EKCH-EGLL

Flight info

Callsign BAW817
Flight time 1h 35m
Altitude 38000
Route LANGO2C LANGO DCT RAXLU DCT JUIST DCT ABNED L980 LOGAN LOGAN2H
Aircraft A320/M-SDE3FGIJ1KRWXY/S

Departure

Time 2026-05-04 18:48
Airport Copenhagen Kastrup Airport (EKCH)

Arrival

Time 2026-05-04 20:23
Airport London Heathrow Airport (EGLL)
Time Latitude Longitude Altitude Speed Heading
2026-05-04 18:02 55.62700 12.65079 24 ft 0 kts 291°
2026-05-04 18:30 55.62687 12.65136 25 ft 4 kts 294°
2026-05-04 18:30 55.62675 12.65180 28 ft 4 kts 296°
2026-05-04 18:30 55.62663 12.65223 26 ft 4 kts 299°
2026-05-04 18:31 55.62649 12.65264 26 ft 4 kts 303°
2026-05-04 18:31 55.62633 12.65302 26 ft 4 kts 316°
2026-05-04 18:31 55.62614 12.65324 27 ft 1 kts 358°
2026-05-04 18:31 55.62613 12.65324 27 ft 0 kts 359°
2026-05-04 18:34 55.62629 12.65318 27 ft 6 kts 340°
2026-05-04 18:34 55.62647 12.65223 25 ft 11 kts 245°
2026-05-04 18:34 55.62574 12.65182 24 ft 13 kts 179°
2026-05-04 18:35 55.62478 12.65188 24 ft 14 kts 173°
2026-05-04 18:35 55.62378 12.65202 24 ft 12 kts 179°
2026-05-04 18:35 55.62305 12.65198 24 ft 8 kts 194°
2026-05-04 18:35 55.62276 12.65106 24 ft 10 kts 268°
2026-05-04 18:36 55.62313 12.64982 25 ft 13 kts 303°
2026-05-04 18:36 55.62355 12.64832 24 ft 14 kts 270°
2026-05-04 18:36 55.62318 12.64670 24 ft 14 kts 245°
2026-05-04 18:36 55.62292 12.64568 24 ft 0 kts 246°
2026-05-04 18:38 55.62289 12.64556 25 ft 3 kts 246°
2026-05-04 18:38 55.62274 12.64493 23 ft 9 kts 246°
2026-05-04 18:38 55.62231 12.64375 22 ft 14 kts 217°
2026-05-04 18:38 55.62139 12.64293 23 ft 15 kts 205°
2026-05-04 18:39 55.62035 12.64206 24 ft 18 kts 205°
2026-05-04 18:39 55.61927 12.64116 24 ft 17 kts 205°
2026-05-04 18:39 55.61845 12.64029 24 ft 15 kts 221°
2026-05-04 18:39 55.61756 12.63939 24 ft 16 kts 182°
2026-05-04 18:40 55.61673 12.63948 25 ft 6 kts 176°
2026-05-04 18:40 55.61670 12.63948 25 ft 0 kts 176°
2026-05-04 18:46 55.61661 12.63949 25 ft 4 kts 177°
2026-05-04 18:46 55.61622 12.63952 25 ft 6 kts 178°
2026-05-04 18:46 55.61570 12.63954 25 ft 9 kts 183°
2026-05-04 18:47 55.61511 12.63892 28 ft 12 kts 220°
2026-05-04 18:47 55.61335 12.63616 27 ft 68 kts 221°
2026-05-04 18:47 55.60811 12.62811 27 ft 129 kts 221°
2026-05-04 18:47 55.60030 12.61606 213 ft 156 kts 225°
2026-05-04 18:48 55.59244 12.60382 946 ft 147 kts 224°
2026-05-04 18:48 55.58431 12.59123 1325 ft 166 kts 224°
2026-05-04 18:48 55.57505 12.57685 1628 ft 189 kts 224°
2026-05-04 18:48 55.56525 12.55961 1947 ft 208 kts 236°
2026-05-04 18:49 55.55658 12.53751 2335 ft 231 kts 240°
2026-05-04 18:49 55.54787 12.51206 2902 ft 250 kts 242°
2026-05-04 18:49 55.53904 12.48526 3837 ft 254 kts 242°
2026-05-04 18:49 55.53008 12.45832 4864 ft 255 kts 241°
2026-05-04 18:50 55.52098 12.43142 5854 ft 256 kts 241°
2026-05-04 18:50 55.51176 12.40459 6896 ft 252 kts 241°
2026-05-04 18:50 55.50248 12.37786 7730 ft 259 kts 240°
2026-05-04 18:50 55.49295 12.35060 8581 ft 263 kts 240°
2026-05-04 18:51 55.48325 12.32299 9449 ft 266 kts 240°
2026-05-04 18:51 55.47338 12.29501 10219 ft 273 kts 240°
2026-05-04 18:51 55.46293 12.26533 10468 ft 296 kts 240°
2026-05-04 18:51 55.45167 12.23337 10789 ft 314 kts 240°
2026-05-04 18:52 55.44000 12.20039 11435 ft 320 kts 240°
2026-05-04 18:52 55.42831 12.16748 12160 ft 323 kts 240°
2026-05-04 18:52 55.41633 12.13381 12911 ft 325 kts 240°
2026-05-04 18:52 55.40424 12.09994 13670 ft 328 kts 240°
2026-05-04 18:53 55.39206 12.06583 14325 ft 331 kts 240°
2026-05-04 18:53 55.37978 12.03140 14971 ft 334 kts 240°
2026-05-04 18:53 55.36739 11.99667 15594 ft 337 kts 240°
2026-05-04 18:53 55.35487 11.96156 16215 ft 340 kts 240°
2026-05-04 18:54 55.34226 11.92620 16844 ft 343 kts 240°
2026-05-04 18:54 55.32950 11.89040 17472 ft 347 kts 240°
2026-05-04 18:54 55.31661 11.85437 18104 ft 350 kts 240°
2026-05-04 18:54 55.30360 11.81802 18673 ft 353 kts 240°
2026-05-04 18:55 55.29044 11.78139 18974 ft 357 kts 240°
2026-05-04 18:55 55.26365 11.70738 20196 ft 362 kts 239°
2026-05-04 18:55 55.25009 11.66999 20778 ft 365 kts 239°
2026-05-04 18:56 55.23635 11.63242 21343 ft 368 kts 239°
2026-05-04 18:56 55.22241 11.59468 21886 ft 371 kts 239°
2026-05-04 18:56 55.20830 11.55662 22429 ft 374 kts 239°
2026-05-04 18:56 55.19410 11.51829 22967 ft 377 kts 239°
2026-05-04 18:57 55.17981 11.47970 23499 ft 380 kts 239°
2026-05-04 18:57 55.16536 11.44077 23945 ft 382 kts 239°
2026-05-04 18:57 55.15085 11.40175 24403 ft 383 kts 239°
2026-05-04 18:57 55.13646 11.36312 24863 ft 384 kts 239°
2026-05-04 18:58 55.12182 11.32389 25321 ft 385 kts 239°
2026-05-04 18:58 55.10714 11.28466 25776 ft 386 kts 239°
2026-05-04 18:58 55.09243 11.24546 26228 ft 387 kts 239°
2026-05-04 18:58 55.07768 11.20611 26670 ft 387 kts 239°
2026-05-04 18:59 55.06292 11.16670 27118 ft 388 kts 239°
2026-05-04 18:59 55.04815 11.12730 27566 ft 389 kts 239°
2026-05-04 18:59 55.03333 11.08788 27904 ft 389 kts 239°
2026-05-04 18:59 55.01848 11.04854 27980 ft 387 kts 239°
2026-05-04 19:00 55.00365 11.00939 27980 ft 386 kts 239°
2026-05-04 19:00 54.98889 10.97040 27982 ft 385 kts 239°
2026-05-04 19:00 54.97419 10.93157 27984 ft 384 kts 239°
2026-05-04 19:00 54.95960 10.89310 28268 ft 386 kts 239°
2026-05-04 19:01 54.94461 10.85365 28744 ft 386 kts 239°
2026-05-04 19:01 54.92983 10.81519 29170 ft 387 kts 238°
2026-05-04 19:01 54.91471 10.77644 29589 ft 388 kts 238°
2026-05-04 19:01 54.89944 10.73764 29995 ft 389 kts 238°
2026-05-04 19:02 54.88410 10.69882 30327 ft 391 kts 238°
2026-05-04 19:02 54.86869 10.65987 30692 ft 391 kts 238°
2026-05-04 19:02 54.85328 10.62091 31065 ft 391 kts 238°
2026-05-04 19:02 54.83787 10.58193 31416 ft 393 kts 238°
2026-05-04 19:03 54.82239 10.54276 31765 ft 394 kts 238°
2026-05-04 19:03 54.80691 10.50358 32127 ft 395 kts 238°
2026-05-04 19:03 54.79152 10.46415 32491 ft 395 kts 239°
2026-05-04 19:03 54.77681 10.42392 32846 ft 396 kts 240°
2026-05-04 19:04 54.76259 10.38302 33210 ft 396 kts 241°
2026-05-04 19:04 54.74860 10.34189 33585 ft 397 kts 241°
2026-05-04 19:04 54.73459 10.30062 33957 ft 398 kts 241°
2026-05-04 19:04 54.72528 10.27331 34167 ft 398 kts 241°
2026-05-04 19:05 54.71108 10.23208 34482 ft 399 kts 240°
2026-05-04 19:05 54.69671 10.19090 34775 ft 400 kts 240°
2026-05-04 19:05 54.68223 10.14977 35062 ft 401 kts 240°
2026-05-04 19:05 54.66768 10.10859 35338 ft 402 kts 240°
2026-05-04 19:06 54.65308 10.06735 35613 ft 403 kts 240°
2026-05-04 19:06 54.63843 10.02600 35876 ft 404 kts 240°
2026-05-04 19:06 54.62371 9.98448 35981 ft 407 kts 240°
2026-05-04 19:06 54.60889 9.94272 35996 ft 409 kts 240°
2026-05-04 19:07 54.57919 9.85895 35997 ft 410 kts 240°
2026-05-04 19:07 54.54928 9.77514 35997 ft 410 kts 240°
2026-05-04 19:08 54.51948 9.69216 36005 ft 410 kts 240°
2026-05-04 19:08 54.48946 9.60867 35997 ft 410 kts 240°
2026-05-04 19:09 54.45944 9.52528 36020 ft 410 kts 239°
2026-05-04 19:09 54.42935 9.44189 36009 ft 411 kts 239°
2026-05-04 19:10 54.39916 9.35861 36016 ft 411 kts 239°
2026-05-04 19:10 54.36885 9.27542 36014 ft 411 kts 239°
2026-05-04 19:11 54.33849 9.19251 36023 ft 411 kts 239°
2026-05-04 19:11 54.30803 9.10962 36009 ft 411 kts 239°
2026-05-04 19:12 54.26260 8.98586 36018 ft 411 kts 239°
2026-05-04 19:13 54.23209 8.90325 36017 ft 411 kts 239°
2026-05-04 19:13 54.20148 8.82086 36016 ft 411 kts 239°
2026-05-04 19:14 54.17084 8.73854 36024 ft 411 kts 239°
2026-05-04 19:14 54.14013 8.65637 36019 ft 410 kts 239°
2026-05-04 19:15 54.10938 8.57431 36018 ft 410 kts 239°
2026-05-04 19:15 54.07860 8.49234 36015 ft 410 kts 239°
2026-05-04 19:16 54.04779 8.41051 36018 ft 410 kts 238°
2026-05-04 19:16 54.01692 8.32880 36021 ft 411 kts 238°
2026-05-04 19:17 53.98591 8.24714 36018 ft 411 kts 238°
2026-05-04 19:17 53.95509 8.16622 36022 ft 411 kts 238°
2026-05-04 19:18 53.92396 8.08479 36026 ft 411 kts 238°
2026-05-04 19:18 53.89275 8.00338 36029 ft 411 kts 238°
2026-05-04 19:19 53.86156 7.92208 36031 ft 411 kts 238°
2026-05-04 19:19 53.83044 7.84141 36032 ft 412 kts 238°
2026-05-04 19:20 53.79907 7.76038 36038 ft 412 kts 238°
2026-05-04 19:20 53.76769 7.67945 36038 ft 411 kts 238°
2026-05-04 19:21 53.73626 7.59869 36035 ft 412 kts 238°
2026-05-04 19:21 53.70470 7.51786 36038 ft 412 kts 238°
2026-05-04 19:22 53.67311 7.43724 36040 ft 412 kts 237°
2026-05-04 19:22 53.64140 7.35669 36039 ft 412 kts 237°
2026-05-04 19:23 53.60970 7.27635 36041 ft 412 kts 237°
2026-05-04 19:23 53.57794 7.19607 36042 ft 412 kts 237°
2026-05-04 19:24 53.54628 7.11644 36042 ft 412 kts 237°
2026-05-04 19:24 53.51444 7.03648 36041 ft 411 kts 237°
2026-05-04 19:25 53.48255 6.95661 36040 ft 412 kts 237°
2026-05-04 19:25 53.45057 6.87694 36036 ft 411 kts 237°
2026-05-04 19:26 53.41860 6.79739 36036 ft 411 kts 237°
2026-05-04 19:26 53.38654 6.71785 36035 ft 412 kts 236°
2026-05-04 19:27 53.35439 6.63843 36036 ft 412 kts 236°
2026-05-04 19:27 53.32219 6.55921 36036 ft 412 kts 236°
2026-05-04 19:28 53.29015 6.48060 36038 ft 412 kts 236°
2026-05-04 19:28 53.25769 6.40093 36038 ft 412 kts 236°
2026-05-04 19:29 53.22558 6.32240 36038 ft 412 kts 236°
2026-05-04 19:29 53.19310 6.24356 36038 ft 412 kts 236°
2026-05-04 19:30 53.16061 6.16475 36036 ft 413 kts 236°
2026-05-04 19:30 53.12803 6.08594 36036 ft 413 kts 236°
2026-05-04 19:31 53.09545 6.00726 36038 ft 413 kts 235°
2026-05-04 19:31 53.06275 5.92874 36035 ft 413 kts 235°
2026-05-04 19:32 53.02995 5.85046 36037 ft 413 kts 235°
2026-05-04 19:32 52.99734 5.77262 36030 ft 413 kts 235°
2026-05-04 19:33 52.96453 5.69440 36025 ft 413 kts 235°
2026-05-04 19:33 52.93168 5.61625 36021 ft 413 kts 235°
2026-05-04 19:34 52.89871 5.53814 36017 ft 413 kts 234°
2026-05-04 19:34 52.86568 5.46024 36015 ft 414 kts 234°
2026-05-04 19:35 52.83254 5.38233 36015 ft 414 kts 234°
2026-05-04 19:35 52.79932 5.30448 36151 ft 415 kts 234°
2026-05-04 19:35 52.78261 5.26547 36468 ft 416 kts 234°
2026-05-04 19:36 52.76588 5.22648 36752 ft 416 kts 234°
2026-05-04 19:36 52.74915 5.18750 36999 ft 417 kts 234°
2026-05-04 19:36 52.73234 5.14831 37254 ft 418 kts 234°
2026-05-04 19:36 52.71549 5.10910 37501 ft 419 kts 234°
2026-05-04 19:37 52.69859 5.06988 37739 ft 420 kts 234°
2026-05-04 19:37 52.68162 5.03062 37965 ft 421 kts 234°
2026-05-04 19:37 52.66481 4.99180 38020 ft 422 kts 234°
2026-05-04 19:38 52.63118 4.91400 38021 ft 422 kts 234°
2026-05-04 19:38 52.59704 4.83526 38017 ft 422 kts 234°
2026-05-04 19:39 52.56283 4.75682 38014 ft 422 kts 234°
2026-05-04 19:39 52.52851 4.67841 38009 ft 423 kts 234°
2026-05-04 19:40 52.49415 4.59999 38011 ft 423 kts 234°
2026-05-04 19:40 52.45970 4.52152 38022 ft 424 kts 234°
2026-05-04 19:41 52.42509 4.44309 38017 ft 424 kts 234°
2026-05-04 19:41 52.39043 4.36492 38033 ft 424 kts 233°
2026-05-04 19:42 52.35595 4.28732 38032 ft 424 kts 233°
2026-05-04 19:42 52.32118 4.20925 38032 ft 424 kts 233°
2026-05-04 19:43 52.28638 4.13125 38035 ft 424 kts 233°
2026-05-04 19:43 52.25154 4.05338 38035 ft 425 kts 233°
2026-05-04 19:44 52.21668 3.97563 38037 ft 424 kts 233°
2026-05-04 19:44 52.18168 3.89796 38034 ft 425 kts 233°
2026-05-04 19:45 52.14674 3.82092 38032 ft 425 kts 233°
2026-05-04 19:45 52.11166 3.74352 38035 ft 426 kts 233°
2026-05-04 19:46 52.07645 3.66606 38032 ft 426 kts 233°
2026-05-04 19:46 52.04121 3.58867 38041 ft 426 kts 233°
2026-05-04 19:47 52.00586 3.51145 38038 ft 426 kts 233°
2026-05-04 19:47 51.97043 3.43425 38035 ft 427 kts 232°
2026-05-04 19:48 51.93479 3.35700 38045 ft 427 kts 232°
2026-05-04 19:48 51.89915 3.27994 38039 ft 427 kts 232°
2026-05-04 19:49 51.86488 3.20149 38040 ft 428 kts 240°
2026-05-04 19:49 51.84549 3.11109 38039 ft 431 kts 260°
2026-05-04 19:50 51.83919 3.01442 38045 ft 432 kts 262°
2026-05-04 19:50 51.83279 2.91770 38039 ft 432 kts 262°
2026-05-04 19:51 51.82625 2.82089 38035 ft 433 kts 262°
2026-05-04 19:51 51.81968 2.72414 38047 ft 433 kts 262°
2026-05-04 19:52 51.81310 2.62725 38047 ft 433 kts 262°
2026-05-04 19:52 51.80983 2.57945 37762 ft 434 kts 262°
2026-05-04 19:52 51.80648 2.53103 37178 ft 433 kts 262°
2026-05-04 19:52 51.80312 2.48272 36558 ft 432 kts 262°
2026-05-04 19:53 51.79972 2.43443 35861 ft 433 kts 262°
2026-05-04 19:53 51.79626 2.38582 35100 ft 436 kts 261°
2026-05-04 19:53 51.79277 2.33708 34318 ft 438 kts 261°
2026-05-04 19:53 51.78923 2.28809 33396 ft 441 kts 261°
2026-05-04 19:54 51.78566 2.23886 32503 ft 441 kts 261°
2026-05-04 19:54 51.78220 2.18963 31638 ft 442 kts 262°
2026-05-04 19:54 51.77918 2.14068 31196 ft 433 kts 263°
2026-05-04 19:54 51.77645 2.09254 30636 ft 429 kts 263°
2026-05-04 19:55 51.77384 2.04483 30078 ft 424 kts 263°
2026-05-04 19:55 51.77126 1.99820 29483 ft 420 kts 263°
2026-05-04 19:55 51.76859 1.95107 28935 ft 413 kts 263°
2026-05-04 19:55 51.76592 1.90575 28422 ft 408 kts 263°
2026-05-04 19:56 51.76315 1.86043 27875 ft 403 kts 263°
2026-05-04 19:56 51.76038 1.81563 27354 ft 399 kts 263°
2026-05-04 19:56 51.75853 1.78570 27002 ft 396 kts 263°
2026-05-04 19:56 51.75487 1.72730 26338 ft 391 kts 263°
2026-05-04 19:57 51.75304 1.69846 26004 ft 389 kts 262°
2026-05-04 19:57 51.75028 1.65515 25523 ft 387 kts 262°
2026-05-04 19:57 51.74755 1.61213 25041 ft 384 kts 263°
2026-05-04 19:57 51.74484 1.56911 24470 ft 386 kts 263°
2026-05-04 19:58 51.74212 1.52600 23891 ft 387 kts 263°
2026-05-04 19:58 51.73936 1.48278 23261 ft 388 kts 263°
2026-05-04 19:58 51.73658 1.43963 22666 ft 387 kts 263°
2026-05-04 19:58 51.73379 1.39653 22086 ft 386 kts 263°
2026-05-04 19:59 51.73097 1.35356 21515 ft 385 kts 263°
2026-05-04 19:59 51.72813 1.31056 20934 ft 385 kts 263°
2026-05-04 19:59 51.72528 1.26773 20358 ft 384 kts 262°
2026-05-04 19:59 51.72244 1.22490 19792 ft 384 kts 262°
2026-05-04 20:00 51.71959 1.18214 19208 ft 383 kts 262°
2026-05-04 20:00 51.71674 1.13949 18640 ft 382 kts 263°
2026-05-04 20:00 51.71393 1.09750 18078 ft 380 kts 263°
2026-05-04 20:00 51.71105 1.05526 17508 ft 377 kts 263°
2026-05-04 20:01 51.70816 1.01339 16914 ft 375 kts 263°
2026-05-04 20:01 51.70529 0.97186 16322 ft 372 kts 263°
2026-05-04 20:01 51.70245 0.93063 15756 ft 368 kts 263°
2026-05-04 20:01 51.69964 0.88971 15180 ft 366 kts 263°
2026-05-04 20:02 51.69683 0.84915 14613 ft 363 kts 263°
2026-05-04 20:02 51.69404 0.80925 14069 ft 361 kts 264°
2026-05-04 20:02 51.69121 0.76907 13462 ft 359 kts 264°
2026-05-04 20:02 51.68838 0.72928 12901 ft 355 kts 264°
2026-05-04 20:03 51.68559 0.69001 12354 ft 351 kts 264°
2026-05-04 20:03 51.68281 0.65108 11814 ft 348 kts 263°
2026-05-04 20:03 51.68005 0.61257 11270 ft 345 kts 263°
2026-05-04 20:03 51.67732 0.57470 11047 ft 333 kts 263°
2026-05-04 20:04 51.67471 0.53844 10921 ft 319 kts 263°
2026-05-04 20:04 51.67221 0.50363 10795 ft 307 kts 263°
2026-05-04 20:04 51.66978 0.47011 10668 ft 296 kts 263°
2026-05-04 20:04 51.66739 0.43749 10404 ft 292 kts 263°
2026-05-04 20:05 51.66504 0.40558 10018 ft 288 kts 263°
2026-05-04 20:05 51.66265 0.37372 9347 ft 286 kts 263°
2026-05-04 20:05 51.66023 0.34177 8778 ft 280 kts 263°
2026-05-04 20:05 51.65793 0.31136 8314 ft 276 kts 263°
2026-05-04 20:06 51.65567 0.28059 8041 ft 274 kts 264°
2026-05-04 20:06 51.65342 0.25018 8028 ft 274 kts 263°
2026-05-04 20:06 51.65117 0.22011 8035 ft 265 kts 263°
2026-05-04 20:06 51.64898 0.19148 8036 ft 250 kts 263°
2026-05-04 20:07 51.64693 0.16425 8033 ft 242 kts 263°
2026-05-04 20:07 51.64438 0.13587 8045 ft 267 kts 262°
2026-05-04 20:07 51.64143 0.10589 8031 ft 273 kts 261°
2026-05-04 20:07 51.63846 0.07569 8034 ft 274 kts 261°
2026-05-04 20:08 51.63546 0.04535 8034 ft 274 kts 261°
2026-05-04 20:08 51.63246 0.01511 8033 ft 274 kts 261°
2026-05-04 20:08 51.62949 -0.01471 8029 ft 274 kts 261°
2026-05-04 20:08 51.62650 -0.04474 8031 ft 274 kts 261°
2026-05-04 20:09 51.62353 -0.07461 8035 ft 274 kts 261°
2026-05-04 20:09 51.62053 -0.10488 8050 ft 274 kts 261°
2026-05-04 20:09 51.61755 -0.13500 7917 ft 271 kts 261°
2026-05-04 20:09 51.61452 -0.16548 7771 ft 272 kts 261°
2026-05-04 20:10 51.61158 -0.19509 7634 ft 272 kts 261°
2026-05-04 20:10 51.60859 -0.22511 7514 ft 271 kts 261°
2026-05-04 20:10 51.60557 -0.25543 7387 ft 271 kts 261°
2026-05-04 20:10 51.60264 -0.28485 7235 ft 270 kts 261°
2026-05-04 20:11 51.59966 -0.31467 7111 ft 270 kts 261°
2026-05-04 20:11 51.59670 -0.34440 7015 ft 269 kts 261°
2026-05-04 20:11 51.59376 -0.37412 7026 ft 270 kts 261°
2026-05-04 20:11 51.59080 -0.40392 7030 ft 270 kts 261°
2026-05-04 20:12 51.58783 -0.43385 7028 ft 270 kts 261°
2026-05-04 20:12 51.58486 -0.46367 7031 ft 270 kts 261°
2026-05-04 20:12 51.58192 -0.49350 7009 ft 270 kts 261°
2026-05-04 20:12 51.57900 -0.52315 6701 ft 268 kts 261°
2026-05-04 20:13 51.57608 -0.55267 6378 ft 267 kts 261°
2026-05-04 20:13 51.57315 -0.58203 6022 ft 266 kts 261°
2026-05-04 20:13 51.57021 -0.61120 5787 ft 259 kts 261°
2026-05-04 20:13 51.56742 -0.63864 5639 ft 240 kts 261°
2026-05-04 20:14 51.56476 -0.66465 5252 ft 234 kts 261°
2026-05-04 20:14 51.56207 -0.69045 4951 ft 233 kts 261°
2026-05-04 20:14 51.55920 -0.71589 4745 ft 228 kts 255°
2026-05-04 20:14 51.55145 -0.73728 4512 ft 223 kts 222°
2026-05-04 20:15 51.53773 -0.74836 4182 ft 223 kts 192°
2026-05-04 20:15 51.52255 -0.75235 3968 ft 217 kts 187°
2026-05-04 20:15 51.50787 -0.75484 3745 ft 213 kts 182°
2026-05-04 20:15 51.49310 -0.75492 3391 ft 213 kts 165°
2026-05-04 20:16 51.48284 -0.74292 3807 ft 166 kts 111°
2026-05-04 20:16 51.47929 -0.72522 4449 ft 167 kts 108°
2026-05-04 20:16 51.47339 -0.70897 4963 ft 172 kts 134°
2026-05-04 20:16 51.46323 -0.69859 4793 ft 180 kts 169°
2026-05-04 20:17 51.45060 -0.70097 4236 ft 193 kts 210°
2026-05-04 20:17 51.44173 -0.71671 4023 ft 196 kts 249°
2026-05-04 20:17 51.43844 -0.73845 4024 ft 203 kts 266°
2026-05-04 20:17 51.43846 -0.76105 4006 ft 203 kts 284°
2026-05-04 20:18 51.44536 -0.78012 4010 ft 199 kts 322°
2026-05-04 20:18 51.45756 -0.78808 3948 ft 189 kts
2026-05-04 20:18 51.46963 -0.78195 3797 ft 184 kts 40°
2026-05-04 20:18 51.47590 -0.76462 3537 ft 183 kts 83°
2026-05-04 20:19 51.47615 -0.74437 3311 ft 185 kts 88°
2026-05-04 20:19 51.47626 -0.72378 3060 ft 184 kts 88°
2026-05-04 20:19 51.47638 -0.70324 2809 ft 184 kts 88°
2026-05-04 20:19 51.47650 -0.68273 2575 ft 183 kts 88°
2026-05-04 20:20 51.47661 -0.66288 2335 ft 172 kts 88°
2026-05-04 20:20 51.47671 -0.64421 2088 ft 163 kts 87°
2026-05-04 20:20 51.47681 -0.62653 1862 ft 154 kts 88°
2026-05-04 20:20 51.47689 -0.60978 1653 ft 145 kts 86°
2026-05-04 20:21 51.47697 -0.59421 1464 ft 132 kts 87°
2026-05-04 20:21 51.47705 -0.57943 1289 ft 131 kts 87°
2026-05-04 20:21 51.47719 -0.55052 937 ft 131 kts 86°
2026-05-04 20:22 51.47726 -0.53588 742 ft 132 kts 86°
2026-05-04 20:22 51.47742 -0.52111 609 ft 133 kts 85°
2026-05-04 20:22 51.47742 -0.50632 379 ft 133 kts 87°
2026-05-04 20:22 51.47746 -0.49160 242 ft 133 kts 85°
2026-05-04 20:23 51.47753 -0.47687 94 ft 130 kts 86°
2026-05-04 20:23 51.47757 -0.46460 89 ft 88 kts 89°
2026-05-04 20:23 51.47761 -0.45749 85 ft 39 kts 90°
2026-05-04 20:23 51.47733 -0.45503 88 ft 18 kts 133°
2026-05-04 20:24 51.47614 -0.45485 89 ft 18 kts 213°
2026-05-04 20:24 51.47594 -0.45652 88 ft 16 kts 271°
2026-05-04 20:24 51.47595 -0.45842 88 ft 19 kts 270°
2026-05-04 20:24 51.47594 -0.46017 90 ft 16 kts 269°
2026-05-04 20:25 51.47594 -0.46177 89 ft 14 kts 270°
2026-05-04 20:25 51.47594 -0.46350 87 ft 17 kts 270°
2026-05-04 20:25 51.47594 -0.46529 89 ft 12 kts 269°
2026-05-04 20:25 51.47592 -0.46653 87 ft 12 kts 268°
2026-05-04 20:26 51.47589 -0.46805 87 ft 15 kts 266°
2026-05-04 20:26 51.47580 -0.46952 89 ft 13 kts 269°
2026-05-04 20:26 51.47581 -0.47113 87 ft 16 kts 270°
2026-05-04 20:26 51.47581 -0.47286 89 ft 15 kts 270°
2026-05-04 20:27 51.47581 -0.47458 89 ft 13 kts 269°
2026-05-04 20:27 51.47581 -0.47625 88 ft 17 kts 269°
2026-05-04 20:27 51.47578 -0.47810 88 ft 14 kts 270°
2026-05-04 20:27 51.47578 -0.47957 90 ft 13 kts 269°
2026-05-04 20:28 51.47578 -0.48120 88 ft 16 kts 270°
2026-05-04 20:28 51.47576 -0.48307 90 ft 14 kts 260°
2026-05-04 20:28 51.47505 -0.48363 87 ft 11 kts 180°
2026-05-04 20:28 51.47421 -0.48361 87 ft 13 kts 179°
2026-05-04 20:29 51.47318 -0.48361 87 ft 16 kts 180°
2026-05-04 20:29 51.47205 -0.48360 87 ft 12 kts 179°
2026-05-04 20:29 51.47148 -0.48360 87 ft 1 kts 180°
2026-05-04 20:29 51.47134 -0.48360 87 ft 0 kts 180°
2026-05-04 20:30 51.47131 -0.48360 87 ft 2 kts 180°
2026-05-04 20:31 51.47107 -0.48359 94 ft 7 kts 180°
2026-05-04 20:31 51.47045 -0.48359 87 ft 8 kts 180°
2026-05-04 20:31 51.46980 -0.48358 87 ft 11 kts 179°
2026-05-04 20:31 51.46896 -0.48373 91 ft 13 kts 213°
2026-05-04 20:32 51.46876 -0.48521 87 ft 16 kts 270°
2026-05-04 20:32 51.46876 -0.48681 87 ft 6 kts 269°
2026-05-04 20:32 51.46885 -0.48711 87 ft 3 kts 323°
2026-05-04 20:32 51.46915 -0.48717 87 ft 6 kts 358°
2026-05-04 20:33 51.46924 -0.48718 87 ft 1 kts 358°
2026-05-04 20:33 51.46930 -0.48718 87 ft 0 kts 358°